EW9204 Weather Reports


Display with metric or nautical units.
time (UTC)temp
F
wind
direction
speed
MPH
gust
MPH
rain 1hr
in
rain 24hr
in
rain mn
in
humidity
%
barometer
mb
20260831160520 75 45 2.0 9.0 0.00 0.10 0.01 65 1021.8
20260831160045 75 75 3.0 9.0 0.00 0.10 0.01 63 1021.9
20260831155518 75 225 2.0 8.0 0.00 0.10 0.01 63 1021.9
20260831155022 74 205 2.0 8.0 0.00 0.10 0.01 65 1022.2
20260831154621 74 265 2.0 8.0 0.00 0.10 0.01 64 1022.1
20260831154025 74 119 3.0 8.0 0.00 0.10 0.01 65 1022.1
20260831153520 74 178 1.0 9.0 0.00 0.10 0.01 70 1022.0
20260831153040 73 55 1.0 9.0 0.00 0.10 0.01 69 1021.8
20260831152520 73 210 3.0 10.0 0.00 0.10 0.01 66 1022.0
20260831152021 74 0 4.0 10.0 0.00 0.10 0.01 68 1022.0
20260831151550 74 123 2.0 9.0 0.00 0.10 0.01 71 1022.1
20260831151019 74 61 3.0 9.0 0.00 0.10 0.01 71 1022.1
20260831150519 74 188 4.0 9.0 0.00 0.10 0.01 79 1022.0
20260831150040 73 182 4.0 9.0 0.00 0.10 0.01 76 1022.2
20260831145517 73 218 3.0 9.0 0.00 0.10 0.01 76 1022.1
20260831145022 72 71 2.0 9.0 0.00 0.10 0.01 76 1022.2
20260831144539 73 360 1.0 8.0 0.00 0.10 0.01 79 1022.3
20260831144025 72 0 1.0 8.0 0.00 0.10 0.01 79 1022.0
20260831143521 72 173 2.0 8.0 0.00 0.10 0.01 77 1022.3
20260831143039 72 137 2.0 8.0 0.00 0.10 0.01 76 1022.3
20260831142521 72 137 2.0 10.0 0.00 0.10 0.01 77 1022.4
20260831142020 72 98 3.0 12.0 0.00 0.10 0.01 76 1022.4
20260831141540 73 219 5.0 12.0 0.00 0.10 0.01 74 1022.2
20260831141017 73 93 2.0 7.0 0.00 0.10 0.01 78 1022.2
20260831140518 73 221 2.0 7.0 0.00 0.10 0.01 77 1022.3
20260831140038 73 41 2.0 7.0 0.00 0.10 0.01 79 1022.4
20260831135518 72 119 2.0 7.0 0.00 0.10 0.01 78 1022.0
20260831135019 72 82 2.0 7.0 0.00 0.10 0.01 79 1022.0
20260831134548 71 106 2.0 7.0 0.00 0.10 0.01 81 1022.0
20260831134021 71 26 3.0 7.0 0.00 0.10 0.01 82 1021.9
20260831133519 70 69 3.0 7.0 0.00 0.10 0.01 83 1021.9
20260831133042 70 41 3.0 7.0 0.00 0.10 0.01 84 1021.9
20260831132525 69 9 3.0 7.0 0.00 0.10 0.01 86 1021.8
20260831132020 69 63 3.0 8.0 0.00 0.10 0.01 86 1021.7
20260831131545 69 34 1.0 8.0 0.00 0.10 0.01 87 1021.6
20260831131018 68 38 3.0 8.0 0.00 0.10 0.01 87 1021.5
20260831130518 68 9 2.0 8.0 0.00 0.10 0.01 88 1021.5
20260831130044 68 67 1.0 6.0 0.00 0.10 0.01 90 1021.5
20260831125525 67 78 1.0 6.0 0.00 0.10 0.01 90 1021.4
20260831125021 67 9 2.0 6.0 0.00 0.10 0.01 91 1021.3
20260831124547 66 9 1.0 4.0 0.00 0.10 0.01 91 1021.3
20260831124019 66 9 2.0 4.0 0.00 0.10 0.01 92 1021.4
20260831123518 66 61 1.0 4.0 0.00 0.10 0.01 92 1021.4
20260831123040 66 76 1.0 3.0 0.00 0.10 0.01 92 1021.6
20260831122524 66 0 0.0 6.0 0.00 0.10 0.01 93 1021.5
20260831122020 65 0 1.0 6.0 0.00 0.10 0.01 93 1021.4
20260831121547 65 38 1.0 5.0 0.00 0.10 0.01 93 1021.3
20260831121018 65 51 1.0 5.0 0.00 0.10 0.01 94 1021.1
20260831120518 65 126 1.0 4.0 0.00 0.10 0.01 94 1021.0
20260831120040 65 0 1.0 5.0 0.00 0.10 0.01 94 1021.2
20260831115528 65 78 1.0 5.0 0.00 0.10 0.01 94 1021.3
20260831115022 65 80 1.0 5.0 0.00 0.10 0.01 94 1021.1
20260831114538 65 61 1.0 4.0 0.00 0.10 0.01 94 1021.0
20260831114020 65 137 1.0 4.0 0.00 0.10 0.01 94 1021.0
20260831113519 65 265 1.0 4.0 0.00 0.10 0.01 94 1020.8
20260831113039 64 347 1.0 4.0 0.00 0.10 0.01 94 1020.8
20260831112520 64 67 1.0 3.0 0.00 0.10 0.01 94 1020.7
20260831112019 64 47 1.0 3.0 0.00 0.10 0.01 94 1020.7
20260831111540 64 9 0.0 3.0 0.00 0.10 0.01 95 1020.7
20260831111018 64 68 1.0 3.0 0.00 0.10 0.01 95 1020.7
20260831110523 64 334 0.0 2.0 0.00 0.10 0.01 95 1020.6
20260831110038 64 9 0.0 3.0 0.00 0.10 0.01 94 1020.6
20260831105521 64 119 1.0 3.0 0.00 0.10 0.01 95 1020.5
20260831105021 64 22 1.0 4.0 0.00 0.10 0.01 95 1020.4
20260831104537 64 67 1.0 4.0 0.00 0.10 0.01 95 1020.3
20260831104022 64 76 1.0 4.0 0.00 0.10 0.01 95 1020.3
20260831103517 64 93 1.0 4.0 0.00 0.10 0.01 95 1020.2
20260831103045 64 309 1.0 4.0 0.00 0.10 0.01 95 1020.2
20260831102521 64 65 0.0 2.0 0.00 0.10 0.01 95 1020.3
20260831102021 64 68 0.0 2.0 0.00 0.10 0.01 95 1020.2
20260831101540 64 9 0.0 2.0 0.00 0.10 0.01 95 1019.9
20260831101020 65 51 0.0 2.0 0.00 0.10 0.01 95 1020.0
20260831100518 65 80 1.0 2.0 0.00 0.10 0.01 95 1020.0
20260831100059 65 93 0.0 4.0 0.00 0.10 0.01 95 1020.0
20260831095517 65 0 1.0 4.0 0.00 0.10 0.01 95 1019.9
20260831095024 65 309 0.0 2.0 0.00 0.10 0.01 95 1019.9
20260831094539 65 265 0.0 2.0 0.00 0.10 0.01 95 1019.9
20260831094021 65 9 0.0 2.0 0.00 0.10 0.01 95 1020.0
20260831093521 65 34 0.0 1.0 0.00 0.10 0.01 95 1020.1
20260831093048 65 298 0.0 1.0 0.00 0.10 0.01 95 1020.1
20260831092522 65 0 0.0 2.0 0.01 0.10 0.01 95 1020.0
20260831092024 65 325 0.0 2.0 0.01 0.10 0.01 95 1020.1
20260831091540 65 9 0.0 2.0 0.01 0.10 0.01 95 1020.0
20260831091019 65 0 0.0 2.0 0.01 0.10 0.01 95 1020.1
20260831090520 65 51 0.0 2.0 0.01 0.10 0.01 95 1020.0
20260831090037 65 265 0.0 3.0 0.01 0.10 0.01 95 1020.0
20260831085518 65 0 0.0 3.0 0.01 0.10 0.01 95 1019.9
20260831085026 65 0 1.0 3.0 0.01 0.10 0.01 95 1020.0
20260831084545 65 309 1.0 3.0 0.01 0.10 0.01 95 1020.0
20260831084017 66 34 1.0 2.0 0.01 0.10 0.01 95 1019.9
20260831083516 66 309 0.0 2.0 0.01 0.10 0.01 95 1020.0
20260831083044 66 0 0.0 2.0 0.01 0.10 0.01 95 1020.0
20260831082525 66 67 0.0 2.0 0.00 0.09 0.00 95 1020.0
20260831082019 66 76 0.0 2.0 0.00 0.09 0.00 95 1020.0
20260831081539 66 0 0.0 2.0 0.00 0.09 0.00 95 1020.1
20260831081021 66 76 0.0 1.0 0.00 0.09 0.00 95 1020.0
20260831080521 66 0 0.0 1.0 0.00 0.09 0.00 95 1020.0
20260831080041 66 0 0.0 2.0 0.00 0.09 0.00 95 1020.0
20260831075521 66 9 0.0 2.0 0.00 0.09 0.00 95 1019.9
20260831075019 66 34 0.0 2.0 0.00 0.09 0.00 95 1019.8
20260831074541 66 205 0.0 2.0 0.00 0.09 0.00 95 1019.8
20260831074019 66 0 0.0 2.0 0.00 0.09 0.00 95 1019.8
20260831073521 66 47 1.0 2.0 0.00 0.09 0.00 95 1019.9
20260831073044 66 0 0.0 2.0 0.00 0.09 0.00 95 1020.0
20260831072521 66 93 0.0 1.0 0.00 0.09 0.00 95 1019.9
20260831072020 66 0 0.0 2.0 0.00 0.09 0.00 95 1019.8
20260831071557 66 162 0.0 2.0 0.00 0.09 0.00 95 1019.8
20260831071019 66 64 0.0 2.0 0.00 0.09 0.00 95 1019.9
20260831070524 66 0 1.0 2.0 0.00 0.09 0.00 94 1020.0
20260831070039 66 0 0.0 2.0 0.00 0.09 0.00 94 1019.9
20260831065519 66 9 0.0 3.0 0.00 0.09 0.00 94 1020.0
20260831065021 66 51 0.0 3.0 0.00 0.09 0.00 94 1019.9
20260831064539 66 51 1.0 3.0 0.00 0.09 0.00 94 1020.0
20260831064019 66 59 0.0 2.0 0.00 0.09 0.00 94 1020.0
20260831063517 66 0 0.0 2.0 0.00 0.09 0.00 94 1020.0
20260831063040 67 51 0.0 3.0 0.00 0.09 0.00 94 1020.0
20260831062524 67 22 0.0 3.0 0.00 0.09 0.00 94 1020.0
20260831062022 67 46 1.0 3.0 0.00 0.09 0.00 94 1019.9
20260831061540 67 0 0.0 2.0 0.00 0.09 0.00 94 1019.8
20260831061022 67 51 0.0 3.0 0.00 0.09 0.00 94 1019.8
20260831060521 67 61 0.0 3.0 0.00 0.09 0.00 94 1019.9
20260831060049 67 68 1.0 3.0 0.00 0.09 0.00 94 1019.9
20260831055525 67 38 1.0 3.0 0.00 0.09 0.00 93 1019.8
20260831055019 67 137 0.0 3.0 0.00 0.09 0.00 93 1019.7
20260831054541 67 34 0.0 2.0 0.00 0.09 0.00 93 1019.6
20260831054018 67 0 1.0 2.0 0.00 0.09 0.00 92 1019.6
20260831053521 68 309 0.0 2.0 0.00 0.09 0.00 92 1019.7
20260831053048 68 265 0.0 2.0 0.00 0.09 0.00 92 1019.8
20260831052518 68 0 0.0 3.0 0.00 0.09 0.00 92 1019.7
20260831052018 68 0 1.0 4.0 0.00 0.09 0.00 92 1019.6
20260831051541 68 341 1.0 4.0 0.00 0.09 0.00 92 1019.7
20260831051020 68 51 1.0 5.0 0.00 0.09 0.00 92 1019.7
20260831050518 68 319 1.0 5.0 0.00 0.09 0.00 92 1019.7
20260831050041 68 0 2.0 6.0 0.00 0.09 0.00 92 1019.7
20260831045521 68 334 2.0 6.0 0.00 0.09 0.00 93 1019.7
20260831045020 68 22 2.0 6.0 0.00 0.09 0.00 93 1019.8
20260831044546 68 334 1.0 4.0 0.00 0.09 0.00 93 1019.7
20260831044023 68 30 1.0 5.0 0.00 0.09 0.00 93 1019.7
20260831043518 68 0 1.0 5.0 0.00 0.09 0.00 93 1019.5
20260831043045 68 67 1.0 4.0 0.00 0.09 0.00 93 1019.6
20260831042518 68 325 1.0 3.0 0.00 0.09 0.00 93 1019.5
20260831042018 68 38 0.0 3.0 0.00 0.09 0.00 93 1019.4
20260831041541 69 336 1.0 4.0 0.00 0.09 0.00 93 1019.5
20260831041026 69 9 0.0 4.0 0.00 0.09 0.00 93 1019.6
20260831040521 69 0 0.0 3.0 0.00 0.09 0.00 93 1019.5
20260831040040 69 9 1.0 3.0 0.00 0.09 0.00 93 1019.6
20260831035517 69 111 0.0 3.0 0.00 0.09 0.09 93 1019.6
20260831035019 69 257 0.0 3.0 0.00 0.09 0.09 93 1019.5
20260831034540 69 51 0.0 3.0 0.00 0.09 0.09 93 1019.5
20260831034019 69 0 0.0 3.0 0.00 0.09 0.09 93 1019.5
20260831033516 69 9 1.0 3.0 0.00 0.09 0.09 93 1019.5
20260831033046 69 0 0.0 3.0 0.00 0.09 0.09 93 1019.5
20260831032518 70 51 0.0 3.0 0.00 0.09 0.09 93 1019.5
20260831032022 70 9 0.0 3.0 0.00 0.09 0.09 93 1019.7
20260831031541 70 301 0.0 5.0 0.00 0.09 0.09 93 1019.8
20260831031020 70 279 2.0 5.0 0.00 0.09 0.09 93 1019.9
20260831030520 70 302 1.0 5.0 0.01 0.09 0.09 94 1020.2
20260831030041 70 309 1.0 6.0 0.01 0.09 0.09 94 1020.2
20260831025521 70 316 2.0 6.0 0.01 0.09 0.09 94 1020.2
20260831025021 70 9 1.0 2.0 0.01 0.09 0.09 94 1020.1
20260831024542 70 19 1.0 2.0 0.01 0.09 0.09 94 1020.2
20260831024021 70 0 1.0 2.0 0.01 0.09 0.09 94 1020.2
20260831023519 70 0 0.0 2.0 0.01 0.09 0.09 94 1020.1
20260831023042 70 0 0.0 2.0 0.02 0.09 0.09 94 1020.1
20260831022516 70 9 0.0 2.0 0.02 0.09 0.09 94 1020.1
20260831022019 71 0 0.0 2.0 0.02 0.09 0.09 94 1020.1
20260831021545 71 338 1.0 3.0 0.03 0.09 0.09 93 1020.2
20260831021022 71 9 1.0 3.0 0.03 0.09 0.09 93 1020.2
20260831020522 71 178 1.0 2.0 0.03 0.08 0.08 93 1020.2
20260831020100 71 309 0.0 3.0 0.03 0.08 0.08 93 1020.3
20260831015522 71 0 0.0 3.0 0.04 0.08 0.08 93 1020.2
20260831015020 71 165 1.0 3.0 0.04 0.08 0.08 93 1020.2
20260831014539 71 162 0.0 2.0 0.05 0.08 0.08 93 1020.1
20260831014019 71 9 0.0 2.0 0.05 0.08 0.08 93 1020.0
20260831013519 71 0 0.0 1.0 0.05 0.07 0.07 93 1020.0
20260831013042 71 0 0.0 2.0 0.05 0.07 0.07 93 1019.9
20260831012521 71 360 0.0 2.0 0.05 0.07 0.07 93 1019.9
20260831012019 71 0 0.0 2.0 0.05 0.07 0.07 93 1019.9
20260831011540 71 0 0.0 2.0 0.05 0.06 0.06 92 1019.9
20260831011018 71 71 0.0 2.0 0.05 0.06 0.06 92 1019.9
20260831010518 72 0 0.0 2.0 0.05 0.05 0.05 92 1019.8
20260831010042 72 34 0.0 2.0 0.05 0.05 0.05 92 1019.8
20260831005519 72 9 0.0 2.0 0.04 0.04 0.04 92 1019.8
20260831005019 72 0 0.0 2.0 0.04 0.04 0.04 92 1019.7
20260831004546 72 0 0.0 2.0 0.03 0.03 0.03 91 1019.6
20260831004015 72 153 0.0 2.0 0.03 0.03 0.03 91 1019.6
20260831003516 72 137 0.0 2.0 0.02 0.02 0.02 91 1019.6
20260831003041 72 0 0.0 3.0 0.02 0.02 0.02 90 1019.6
20260831002520 73 334 0.0 3.0 0.02 0.02 0.02 90 1019.5
20260831002024 73 309 0.0 3.0 0.02 0.02 0.02 90 1019.5
20260831001548 73 319 0.0 3.0 0.01 0.01 0.01 89 1019.4
20260831001019 73 238 0.0 2.0 0.01 0.01 0.01 89 1019.4
20260831000517 73 0 0.0 2.0 0.00 0.00 0.00 88 1019.2
20260831000041 73 0 0.0 2.0 0.00 0.00 0.00 88 1019.2
20260830235517 74 0 0.0 2.0 0.00 0.00 0.00 87 1019.2
20260830235021 74 0 0.0 2.0 0.00 0.00 0.00 87 1019.3
20260830234545 74 0 0.0 3.0 0.00 0.00 0.00 86 1019.1
20260830234019 74 67 0.0 3.0 0.00 0.00 0.00 85 1019.0
20260830233520 74 162 0.0 3.0 0.00 0.00 0.00 85 1018.9
20260830233041 74 0 0.0 2.0 0.00 0.00 0.00 84 1018.8
20260830232519 75 51 0.0 2.0 0.00 0.00 0.00 84 1018.8
20260830232024 75 0 0.0 2.0 0.00 0.00 0.00 84 1018.8
20260830231539 75 0 0.0 2.0 0.00 0.00 0.00 83 1018.8
20260830231017 75 0 0.0 2.0 0.00 0.00 0.00 83 1018.8
20260830230518 75 0 0.0 1.0 0.00 0.00 0.00 83 1018.9
20260830230041 75 0 0.0 2.0 0.00 0.00 0.00 83 1018.9
20260830225516 75 0 0.0 3.0 0.00 0.00 0.00 83 1019.0
20260830225016 75 153 1.0 3.0 0.00 0.00 0.00 82 1018.9
20260830224542 75 142 1.0 3.0 0.00 0.00 0.00 82 1018.9
20260830224019 76 0 0.0 2.0 0.00 0.00 0.00 81 1019.0
20260830223521 76 178 1.0 3.0 0.00 0.00 0.00 81 1018.9
20260830223039 76 0 1.0 4.0 0.00 0.00 0.00 81 1018.9
20260830222518 76 217 1.0 4.0 0.00 0.00 0.00 81 1019.0
20260830222020 76 232 1.0 4.0 0.00 0.00 0.00 81 1019.1
20260830221547 76 198 1.0 4.0 0.00 0.00 0.00 80 1019.2
20260830221017 76 0 1.0 7.0 0.00 0.00 0.00 80 1019.4
20260830220516 76 265 2.0 8.0 0.00 0.00 0.00 80 1019.3
20260830220051 76 221 2.0 10.0 0.00 0.00 0.00 79 1019.4
20260830215521 76 146 3.0 10.0 0.00 0.00 0.00 80 1019.3
20260830215023 76 190 1.0 5.0 0.00 0.00 0.00 79 1019.2
20260830214543 76 200 1.0 10.0 0.00 0.00 0.00 79 1019.2
20260830214019 77 236 3.0 10.0 0.00 0.00 0.00 78 1019.1
20260830213518 77 121 2.0 6.0 0.00 0.00 0.00 79 1019.2
20260830213049 77 195 2.0 7.0 0.00 0.00 0.00 79 1019.0
20260830212516 77 229 3.0 8.0 0.00 0.00 0.00 78 1019.1
20260830212019 77 196 1.0 8.0 0.00 0.00 0.00 79 1019.1
20260830211552 77 207 3.0 8.0 0.00 0.00 0.00 78 1019.1
20260830211019 77 0 2.0 6.0 0.00 0.00 0.00 78 1019.2
20260830210520 77 190 1.0 7.0 0.00 0.00 0.00 79 1019.2
20260830210054 77 238 2.0 7.0 0.00 0.00 0.00 79 1019.2
20260830205522 77 213 2.0 10.0 0.00 0.00 0.00 78 1019.3
20260830205018 77 212 2.0 10.0 0.00 0.00 0.00 78 1019.4
20260830204551 77 221 2.0 10.0 0.00 0.00 0.00 78 1019.4
20260830204018 77 229 3.0 9.0 0.00 0.00 0.00 79 1019.4
20260830203518 77 284 2.0 10.0 0.00 0.00 0.00 78 1019.5
20260830203046 76 217 3.0 10.0 0.00 0.00 0.00 78 1019.6
20260830202519 77 215 2.0 9.0 0.00 0.00 0.00 79 1019.6
20260830202019 76 200 2.0 9.0 0.00 0.00 0.00 79 1019.5
20260830201540 76 144 3.0 8.0 0.00 0.00 0.00 79 1019.6
20260830201020 76 221 3.0 8.0 0.00 0.00 0.00 79 1019.6
20260830200518 76 212 2.0 6.0 0.00 0.00 0.00 80 1019.7
20260830200040 75 230 2.0 7.0 0.00 0.00 0.00 80 1019.8
20260830195519 75 234 2.0 7.0 0.00 0.00 0.00 80 1019.9
20260830195017 75 225 2.0 8.0 0.00 0.00 0.00 80 1019.9
20260830194539 75 170 2.0 8.0 0.00 0.00 0.00 80 1019.9
20260830194017 75 225 3.0 7.0 0.00 0.00 0.00 80 1019.9
20260830193517 75 236 2.0 7.0 0.00 0.00 0.00 79 1020.0
20260830193041 75 227 1.0 5.0 0.00 0.00 0.00 79 1020.0
20260830192519 75 295 1.0 4.0 0.00 0.00 0.00 78 1020.1
20260830192021 75 146 0.0 6.0 0.00 0.00 0.00 78 1020.1
20260830191539 75 178 2.0 7.0 0.00 0.00 0.00 78 1020.3
20260830191021 75 212 2.0 7.0 0.00 0.00 0.00 78 1020.4
20260830190521 75 265 2.0 6.0 0.00 0.00 0.00 77 1020.5
20260830190042 75 254 2.0 7.0 0.00 0.00 0.00 77 1020.5
20260830185518 75 158 2.0 7.0 0.00 0.00 0.00 76 1020.7
20260830185019 75 153 2.0 7.0 0.00 0.00 0.00 76 1020.8
20260830184543 75 234 2.0 7.0 0.00 0.00 0.00 75 1020.9
20260830184017 75 208 2.0 7.0 0.00 0.00 0.00 74 1021.0
20260830183522 76 0 2.0 10.0 0.00 0.00 0.00 74 1020.9
20260830183041 76 129 2.0 10.0 0.00 0.00 0.00 73 1020.9
20260830182522 76 215 3.0 9.0 0.00 0.00 0.00 72 1020.8
20260830182022 76 238 2.0 9.0 0.00 0.00 0.00 72 1020.8
20260830181540 76 325 3.0 9.0 0.00 0.00 0.00 72 1021.0
20260830181021 76 144 2.0 10.0 0.00 0.00 0.00 73 1021.0
20260830180526 76 215 4.0 10.0 0.00 0.00 0.00 71 1021.3
20260830180039 76 214 4.0 9.0 0.00 0.00 0.00 69 1021.5
20260830175517 77 0 3.0 10.0 0.00 0.00 0.00 69 1021.6
20260830175023 77 165 3.0 10.0 0.00 0.00 0.00 68 1021.6
20260830174542 77 216 2.0 10.0 0.00 0.00 0.00 68 1021.5
20260830174022 78 217 4.0 11.0 0.00 0.00 0.00 67 1021.6
20260830173517 77 146 3.0 11.0 0.00 0.00 0.00 68 1021.6
20260830173037 77 0 3.0 8.0 0.00 0.00 0.00 67 1021.6
20260830172518 76 250 2.0 8.0 0.00 0.00 0.00 70 1021.7
20260830172019 76 51 2.0 7.0 0.00 0.00 0.00 69 1021.8
20260830171538 76 196 2.0 7.0 0.00 0.00 0.00 67 1021.8
20260830171022 76 221 2.0 8.0 0.00 0.00 0.00 66 1021.9
20260830170519 76 144 2.0 9.0 0.00 0.00 0.00 65 1022.0
20260830170037 76 231 2.0 10.0 0.00 0.00 0.00 65 1021.9
20260830165524 76 212 4.0 10.0 0.00 0.00 0.00 65 1022.0
20260830165021 77 221 3.0 9.0 0.00 0.00 0.00 64 1022.0
20260830164543 77 254 3.0 7.0 0.00 0.00 0.00 65 1022.0
20260830164023 77 137 2.0 9.0 0.00 0.00 0.00 63 1022.0
20260830163519 77 38 2.0 9.0 0.00 0.00 0.00 66 1022.1
20260830163036 76 211 3.0 10.0 0.00 0.00 0.00 63 1022.2
20260830162517 76 193 4.0 10.0 0.00 0.00 0.00 65 1022.3
20260830162019 76 201 4.0 9.0 0.00 0.00 0.00 62 1022.3
20260830161557 76 234 2.0 8.0 0.00 0.00 0.00 63 1022.5
20260830161018 76 191 2.0 8.0 0.00 0.00 0.00 63 1022.6